Welcome to the New NWS' Forecast!
Most changes are behind the scenes, but click here for differences you might notice.

Regional Weather Roundup (RWR)

Issued by National Weather Service (NWS)

                            
000
ASUS43 KLOT 230809
RWRIL 

ILLINOIS REGIONAL WEATHER ROUNDUP
NATIONAL WEATHER SERVICE CHICAGO/ROMEOVILLE IL
300 AM CDT TUE OCT 23 2018

NOTE: "FAIR" INDICATES FEW OR NO CLOUDS BELOW 12,000 FEET WITH NO
SIGNIFICANT WEATHER AND/OR OBSTRUCTIONS TO VISIBILITY.

* THESE STATIONS ARE NOT UNDER NWS QUALITY CONTROL. THEY ALSO MAY NOT
  REPORT WEATHER SUCH AS PRECIPITATION OR FOG.

ILZ001-002-007-009-015-016-024-230900-
NORTHWEST ILLINOIS
  
CITY           SKY/WX    TMP DP  RH WIND       PRES   REMARKS
MOLINE         FAIR      42  31  64 W3        30.21R                  
STERLING*      FAIR      38  32  79 W7        30.18R WCI  33          
$$

ILZ003-004-008-010-011-017-018-230900-
NORTH CENTRAL ILLINOIS
  
CITY           SKY/WX    TMP DP  RH WIND       PRES   REMARKS
ROCKFORD       FAIR      43  28  55 NW8       30.17R                  
FREEPORT*      FAIR      40  28  64 NW6       30.19R                  
ROCHELLE*      FAIR      36  29  76 NW6       30.17R WCI  31          
DE KALB*       FAIR      40  30  67 NW8       30.16R                  
PERU*          FAIR      44  34  67 NW10      30.17S                  
$$

ILZ005-006-012>014-019>023-230900-
NORTHEAST ILLINOIS
  
CITY           SKY/WX    TMP DP  RH WIND       PRES   REMARKS
CHICAGO-OHARE  FAIR      46  30  53 W7        30.12R                  
CHICAGO-MIDWAY FAIR      46  30  53 NW8       30.12R                  
AURORA         FAIR      37  30  75 NW8       30.15R WCI  31          
LANSING*       FAIR      46  31  57 NW7       30.12R                  
JOLIET*        FAIR      43  33  68 CALM      30.14R                  
WAUKEGAN       FAIR      44  27  51 NW8       30.11R                  
DUPAGE AIRPORT FAIR      42  30  62 W8        30.13R                  
KANKAKEE*      FAIR      41  32  70 NW5       30.14S                  
WHEELING       FAIR      45  28  51 NW5       30.13R                  
MORRIS*        FAIR      40  32  73 W10       30.14R                  
ROMEOVILLE*    FAIR      42  33  70 NW9       30.14R                  
NORTHERLY ISL    N/A     50  28  43 W12         N/A                   
$$

LMZ740>746-230900-
SOUTHERN LAKE MICHIGAN
  
STATION/POSITION SKY/WX   TEMP    WIND        PRES    VSBY  WAVE
                          AIR SEA DIR/SP/G                  HT/PER
                          (F)     (DEG/KT/KT) (MB)    (MI)  (FT/S)
SOUTHERN BUOY              51 54  330/ 21/ 25 1018.3R         4/ 5
WINTHROP HARBOR            48 49                N/A           1/ 2
WAUKEGAN HARBOR            47 51  320/ 14       N/A           0
WILMETTE HARBOR            51 55  300/ 16/ 19   N/A           2/ 3
HARRISON CRIB              52     310/ 20/ 22   N/A
NORTHERLY ISL              50     280/  9/ 15   N/A
CALUMET HARBOR             47     270/  3/  6 1019.2R
BURNS HARBOR               55     310/ 11/ 13 1019.3
MICHIGAN CITY              55     290/ 23/ 26   N/A
MICHIGAN CITY 6N           54 55  330/ 17/ 23   N/A           4/ 4
ST. JOSEPH                 54 56  360/ 17/ 25 1018.7          3/ 5
$$

ILZ025>027-034>036-040-047-049-050-058-095>099-230900-
WEST-CENTRAL ILLINOIS
  
CITY           SKY/WX    TMP DP  RH WIND       PRES   REMARKS
QUINCY           N/A     47  35  63 N9        30.22                   
GALESBURG*     FAIR      40  32  71 W6        30.22R                  
MACOMB*        CLEAR     42  34  71 N7        30.23R HAZE             
JACKSONVILLE*  CLEAR     40  37  89 NW3       30.20S                  
PITTSFIELD*    CLEAR     50  38  61 N10       30.22R                  
$$

ILZ028>032-037-038-041>044-048-051>054-059>061-230900-
CENTRAL ILLINOIS
  
CITY           SKY/WX    TMP DP  RH WIND       PRES   REMARKS
PONTIAC        FAIR      41  33  73 NW7       30.16S                  
BLOOMINGTON    FAIR      48  32  53 NW10      30.18R                  
DECATUR        FAIR      46  39  76 W6        30.18R                  
PEORIA         FAIR      47  33  58 NW3       30.20R                  
LACON*         FAIR      41  32  70 NW3       30.17S                  
LINCOLN*       FAIR      45  37  75 NW3       30.19R                  
SPRINGFIELD    FAIR      37  37 100 CALM      30.20R                  
TAYLORVILLE    FAIR      40  37  91 CALM      30.19R                  
$$

ILZ033-039-045-046-055>057-062-063-230900-
EAST-CENTRAL ILLINOIS
  
CITY           SKY/WX    TMP DP  RH WIND       PRES   REMARKS
CHAMPAIGN      FAIR      39  35  86 NW9       30.16R WCI  33          
DANVILLE*      FAIR      44  37  76 W7        30.13R                  
RANTOUL*       FAIR      43  37  77 NW6       30.16R                  
MATTOON        FAIR      50  41  71 W7        30.16S                  
PARIS*         FAIR      43  39  86 W7        30.16S                  
$$

ILZ079-100>102-230900-
SOUTHWEST ILLINOIS
  
CITY           SKY/WX    TMP DP  RH WIND       PRES   REMARKS
ALTON          PTCLDY    40  40 100 CALM      30.19S                  
BELLEVILLE     CLEAR     44  40  84 CALM      30.17F                  
CAHOKIA*       CLEAR     44  40  85 CALM      30.19S                  
SPARTA*        CLEAR     45  40  84 CALM      30.20S                  
$$

ILZ064>066-069>071-074>076-080>082-084>086-088>090-092>094-230900-
SOUTH-CENTRAL ILLINOIS
  
CITY           SKY/WX    TMP DP  RH WIND       PRES   REMARKS
CARBONDALE     FAIR      41  39  93 CALM      30.20R                  
CAIRO*         FAIR      40  40 100 CALM      30.22S                  
EFFINGHAM*     FAIR      43  39  86 CALM      30.19S                  
MARION         FAIR      43  40  88 SW3       30.20S                  
MT. VERNON     FAIR      39  37  92 CALM      30.18F                  
CENTRALIA*     CLEAR     45  40  84 CALM      30.17F                  
SALEM*         FAIR      46  38  75 CALM      30.18S                  
METROPOLIS*    FAIR      40  39  97 CALM      30.22S                  
$$

ILZ067-068-072-073-078-083-087-091-230900-
SOUTHEAST ILLINOIS
  
CITY           SKY/WX    TMP DP  RH WIND       PRES   REMARKS
LAWRENCEVILLE  FAIR      43  37  79 SW3       30.18R                  
FLORA*         FAIR      43  39  87 CALM      30.18S                  
FAIRFIELD*     FAIR      43  39  85 CALM      30.17S                  
HARRISBURG*    FAIR      41  39  93 CALM      30.20F                  
ROBINSON*      FAIR      42  36  79 SW3       30.18S                  
CARMI*         FAIR      43  37  81 CALM      30.18S                  
$$

ABBREVIATIONS USED IN REMARKS
   TC - TEMPERATURE IN CELSIUS
  WCI - WIND CHILL INDEX
   HX - HEAT INDEX
  VSB - VISIBILITY
$$